Location: Finkenwalde
(53.3770°N, 14.6418°E)
Time: 09:27:22
(UTC+00:00)

Genesis I - Pass Details

Date: 05 February 2023
Orbit: 466 x 516 km, 64.5° (Epoch: 19 March)

Event Time Altitude Azimuth Distance (km) Brightness Sun altitude
Rises 18:13:25 0° 227° (SW) 2,644 7.5 -21.3°
Reaches altitude 10° 18:15:35 10° 228° (SW) 1,761 6.5 -21.6°
Maximum altitude 18:19:32 79° 314° (NW) 539 3.2 -22.2°
Enters shadow 18:19:50 73° 8° (N) 553 3.2 -22.2°
